www.pogodaiklimat.ru

Погода и климат >> Архив погоды >> Россия >> Курганская область >> Шумиха


ПОГОДА в Шумихе

  • Прогноз погоды в Шумихе
  • Монитор погоды в Шумихе

АРХИВ ПОГОДЫ в Шумихе

Время (UTC), дата Ветер
(напр.,м/с)
 
Видим.   Явления Облачность Т
(С)
Тd
(С)
f
(%)
Тe
(С)
Тes
(С)
Комфортность P
(гПа)
Po
(гПа)
Тmin
(С)
Tmax
(С)
R
(мм)
R24
(мм)
S
(см)
09 12.07 В 2 20 км 9/0
[Ci sp]
+29.4 +10.3 31 +30 +42 жарко 1012.1 992.1
12 12.07 СВ 2 20 км 9/0
[Ci sp]
+29.9 +10.5 30 +30 +35 жарко 1011.6 991.7
15 12.07 СВ 2 20 км 9/0
[Ci sp]
+28.6 +14.7 43 +31 +31 жарко 1011.7 991.7 +30.5
18 12.07 СВ 2 20 км 6/0
[Ci sp]
+24.1 +14.7 56 +27 +27 жарко 1012.2 991.9
21 12.07 В 2 20 км 6/0
[Ci sp]
+21.3 +15.5 70 +25 +25 комфорт 1011.8 991.4
00 13.07 В 2 20 км 8/0
[Ci sp]
+19.8 +14.4 71 +22 +22 комфорт 1011.8 991.2
03 13.07 ЮВ 3 20 км 9/0
[Ci sp]
+25.6 +11.7 42 +27 +30 жарко 1011.5 991.3 +19.7
06 13.07 ЮВ 5 20 км 6/0
[Ci sp]
+31.1 +9.4 26 +30 +37 жарко 1011.1 991.2
09 13.07 ЮВ 7-11
{13}
20 км 5/0
[Ci fib]
+33.6 +7.2 19 +32 +35 жарко 1010.2 990.5
12 13.07 ЮВ 5
{12}
20 км 3/0
[Ci fib]
+33.3 +6.2 19 +31 +35 жарко 1009.8 990.1
15 13.07 ЮВ 3
{11}
20 км 3/0
[Ci sp]
+29.3 +9.4 29 +29 +29 жарко 1010.2 990.2 +34.0
18 13.07 ЮВ 4 20 км 3/0
[Ci sp]
+23.8 +9.8 41 +25 +25 комфорт 1010.6 990.3
21 13.07 ЮВ 3 20 км ясно +21.0 +11.2 53 +23 +23 комфорт 1011.2 990.7
00 14.07 ЮВ 3 20 км ясно +18.5 +11.2 62 +19 +19 1011.4 990.7
03 14.07 ЮВ 3 20 км ясно +23.0 +11.7 49 +25 +29 комфорт 1011.1 990.7 +18.4
06 14.07 ЮВ 4 20 км 3/0
[Ci sp]
+29.0 +9.4 29 +29 +37 жарко 1010.9 991.0
09 14.07 ЮВ 5
{11}
20 км 3/0
[Ci sp]
+31.3 +7.0 22 +30 +37 жарко 1009.9 990.2
12 14.07 ЮВ 5
{10}
20 км 6/0
[Ci sp]
+31.5 +8.5 24 +30 +33 жарко 1009.0 989.2
15 14.07 В 3 20 км 8/0
[Ci sp]
+28.7 +10.2 32 +29 +29 жарко 1009.0 989.0 +32.3
18 14.07 В 2 20 км 9/0
[Ci sp]
+23.1 +11.5 48 +25 +25 комфорт 1009.1 988.7
21 14.07 ЮВ 2 20 км 9/3 600 м
[Cb cap Ac trans Ci sp]
+21.6 +13.0 58 +24 +24 комфорт 1008.2 987.8
00 15.07 В 3 20 км 8/0
[Ac trans Ci sp]
+19.6 +13.8 69 +22 +22 комфорт 1008.1 987.6
03 15.07 ЮВ 3 20 км 8/0
[Ci sp]
+23.3 +13.9 55 +27 +30 душно 1007.0 986.7 +19.3
06 15.07 В 4 20 км 4/0
[Ci sp]
+29.6 +12.0 34 +30 +39 жарко 1005.1 985.2
09 15.07 ЮВ 7-13
{14}
20 км 6/0
[Ac trans Ci sp]
+32.8 +8.0 22 +31 +34 жарко 1002.7 983.2
12 15.07 ЮВ 7-12
{16}
20 км 9/4 600 м
[Cb cap Ac trans Ci sp]
+32.3 +8.2 22 +31 +32 жарко 1000.9 981.3
15 15.07 ЮВ 6-11
{14}
20 км 5/5 600 м
[Sc]
+30.5 +9.0 26 +30 +30 жарко 998.8 979.1 +33.3
18 15.07 Ю 4
{12}
20 км 4/0
[Ac trans]
+27.5 +10.0 33 +28 +28 жарко 999.5 979.7
21 15.07 ЮЗ 5
{10}
20 км 8/0
[Ci sp]
+20.5 +10.2 52 +22 +22 комфорт 1000.4 980.1
00 16.07 ЮЗ 3 20 км 6/0
[Ac trans Ci sp]
+14.5 +10.0 74 +14 +14 1002.3 981.5
03 16.07 ЮЗ 4 20 км 3/3 600 м
[Cu med, cong Ci sp]
+18.7 +10.6 59 +19 +21 1003.1 982.6 +14.3
06 16.07 З 4
{11}
20 км 9/9 600 м
[Cb cap]
+20.6 +9.6 49 +22 +23 комфорт 1004.0 983.6
09 16.07 З 6-10
{13}
20 км 9/9 600 м
[Cb cap]
+22.9 +9.6 43 +25 +25 комфорт 1005.6 985.3
12 16.07 З 4
{13}
20 км 9/8 600 м
[Cb cap Ci sp]
+21.5 +10.7 50 +23 +24 комфорт 1008.2 987.8
15 16.07 З 4 20 км 9/8 600 м
[Cb cap Ci sp]
+22.3 +9.9 45 +24 +24 комфорт 1009.0 988.6 +23.1
18 16.07 З 2 20 км 3/3 600 м
[Sc]
+18.3 +10.7 61 +19 +19 1011.0 990.3
21 16.07 З 1 20 км ясно +15.4 +9.9 70 +16 +16 1012.2 991.3
00 17.07 З 2 20 км 8/0
[Ci sp]
+13.4 +10.3 81 +13 +13 1013.3 992.2
03 17.07 З 2 20 км 8/0
[Ci sp]
+18.8 +12.3 66 +20 +24 1014.0 993.2 +13.3
06 17.07 СЗ 4 20 км 8/3 1000 м
[Cu hum Ci sp]
+23.8 +8.8 38 +24 +30 комфорт 1013.0 992.6
09 17.07 СЗ 3 20 км 8/0
[Ci sp]
+25.8 +7.1 30 +26 +36 жарко 1012.4 992.2
12 17.07 СЗ 4 20 км 6/0
[Ci sp]
+26.9 +6.4 27 +26 +30 жарко 1012.0 991.9
15 17.07 СЗ 2 20 км 5/0
[Ci sp]
+25.2 +7.0 31 +25 +25 комфорт 1012.3 992.0 +27.3
18 17.07 Ю 1 20 км 4/0
[Ci sp]
+14.2 +10.3 77 +15 +15 1013.5 992.5
21 17.07 ЮЗ 1 20 км 4/0
[Ac trans Ci sp]
+11.6 +9.5 87 +11 +11 1013.6 992.4
00 18.07 ЮЗ 1 20 км 8/0
[Ac trans Ci sp]
+11.4 +9.6 89 +11 +11 1013.6 992.6
03 18.07 штиль 0 20 км 10/10 600 м
[Sc]
+17.0 +13.5 80 +17 +17 1013.4 992.6 +10.8
06 18.07 штиль 0 20 км в посл. час дождь 9/9 600 м
[Sc]
+18.3 +13.5 74 +19 +20 1014.2 993.4
09 18.07 штиль 0 20 км 8/0
[Ac trans Ci sp]
+25.4 +11.5 42 +27 +40 жарко 1012.7 992.5
12 18.07 З 2 20 км 4/4 1000 м
[Cu hum]
+28.3 +9.4 31 +28 +32 жарко 1011.5 991.5
15 18.07 В 1 20 км 3/0
[Ci sp]
+27.0 +9.8 34 +27 +28 жарко 1010.9 990.8 +28.3 0.5
18 18.07 В 2 20 км 5/0
[Ac trans Ci sp]
+20.6 +12.3 59 +23 +23 комфорт 1011.4 990.9
21 18.07 В 2 20 км 3/0
[Ac trans]
+19.1 +11.6 62 +21 +21 комфорт 1011.2 990.5
00 19.07 В 2 20 км 8/4 600 м
[Sc Ac trans Ci sp]
+18.7 +11.7 64 +20 +20 1010.9 990.2
03 19.07 В 2 20 км 9/4 600 м
[Cb cap Ac trans]
+21.1 +13.9 63 +24 +25 комфорт 1011.2 990.7 +18.0
06 19.07 ЮВ 2 20 км 4/0
[Ac trans Ci sp]
+26.6 +14.5 47 +29 +39 жарко 1010.0 989.9

 

Местоположение метеостанции Шумиха (Курганская область, Россия): широта 55.23 долгота 63.32 высота над уровнем моря 178 м.

В архиве по умолчанию представлена погода в Шумихе за последнюю неделю. Архивные данные за месяц целиком и за предыдущие месяцы, начиная с января 2011 года, Вы можете получить, выбрав интересующий диапазон дат из раскрывающегося списка и нажав кнопку "Ввод!".


*Определитесь, кто Вы:
робот инопланетянин человек

Внимание! Время в таблицах - всемирное. Для получения местного времени необходимо прибавить поправку, которая равна 5 ч.

Смотрите также архив погоды в соседних городах и на ближайших метеорологических станциях:

Погода в Куртамыше (Курганская область, Россия) (79 км)
Погода в Целинном (Курганская область, Россия) (84 км)
Погода в Бродокалмаке (Челябинская область, Россия) (88 км)
Погода в Шадринске (Курганская область, Россия) (96 км)
Погода в Октябрьском (Челябинская область, Россия) (98 км)
Погода в Далматово (Курганская область, Россия) (118 км)
Погода в Челябинске (Челябинская область, Россия) (129 км)
Погода в Звериноголовском (Курганская область, Россия) (130 км)
Погода в Кургане (Курганская область, Россия) (134 км)
Погода в Южноуральске (Челябинская область, Россия) (154 км)

Пояснения к столбцам:

Ветер - указаны скорость ветра в м/с - средняя за 10 мин, порывы в срок и между сроками (в фигурных скобках) и направление, откуда дует ветер: С - северный, СВ - северо-восточный, В - восточный, ЮВ - юго-восточный, Ю - южный, ЮЗ - юго-западный, З - западный, СЗ - северо-западный.
Видимость - горизонтальная дальность видимости в метрах или километрах. При видимости от 1 до 10 км при отсутствии осадков обычно наблюдается дымка, при ухудшении видимости до 1 км и менее - туман. В сухую погоду видимость может ухудшаться дымом, пылью или мглою.
Явления - указаны атмосферные явления, наблюдавшиеся в срок или в последний час перед сроком; фигурными скобками обозначены явления, наблюдавшиеся между сроками (за 1-3 часа до срока); квадратными скобками обозначены град или гололедные отложения с указанием их диаметра в мм.
Облачность - указаны через наклонную черту общая и нижняя облачность в баллах и высота нижней границы облаков в метрах; квадратными скобками обозначены формы облаков: Ci - перистые, Cs - перисто-слоистые, Cc - перисто-кучевые, Ac - высококучевые, As - высокослоистые, Sc - слоисто-кучевые, Ns - слоисто-дождевые, Cu - кучевые, Cb - кучево-дождевые. Подробнее классификацию облаков см. в Атласе облаков (PDF).
T - Температура воздуха - температура, измеренная на высоте 2 м над землей.
Td - Температура точки росы - температура, при понижении до которой содержащийся в воздухе водяной пар достигнет насыщения.
f - Относительная влажность воздуха - влажноcть воздуха, измеренная на высоте 2 м над землей.
Te - Эффективная температура - температура, которую ощущает одетый по сезону человек в тени. Характеристика душности погоды. При расчете учитывается влияние влажности воздуха и скорости ветра на теплоощущения человека.
Tes - Эффективная температура на солнце - температура, которую ощущает человек, с поправкой на солнечный нагрев. Характеристика знойности погоды. Зависит от высоты солнца над горизонтом, облачности и скорости ветра. Ночью, в пасмурную погоду, а также при ветре 12 м/с и более поправка равна нулю.
P - Атмосферное давление - приведенное к уровню моря атмосферное давление.
Po - Атмосферное давление - измеренное на уровне метеостанции атмосферное давление.
Tmin - Минимальная температура - минимум температуры воздуха на высоте 2 м над землей.
Tmax - Максимальная температура - максимум температуры воздуха на высоте 2 м над землей.
R - Количество осадков - Количество выпавших осадков за период времени, мм. При наведении курсора мыши на число - период времени, за который выпало указанное количество осадков.
R24 - Количество осадков - Количество выпавших осадков за 24 часа, мм.
S - Снежный покров - Высота снежного покрова, см. При наведении курсора мыши на число - состояние снежного покрова и степень покрытия местности в баллах.